MS SANDHILL CRANE - FTS MS US current weather conditions

sailwx.info

Wind from 204 at 3 knots gusting 7

Air temperature 33.3° C
Dewpoint 23.3° C

Last reported at 2019-Jul-18 16:51 UTC.
Time now 2019-Jul-18 18:07 UTC

Location: N 30°27' W 088°40'.
View on Google Maps.

See reports from other nearby stations

  
Tides and Currents Weather Stations Pressure Air Temp Water Temp Dewpoint Dewpoint Depression Visibility Wind Speed Wind Dir Waves Ship Positions
date/time (UTC)wind fromknots sea level pressurealtimeterstation pressurevisibilityair tempwater tempwave heightnotes
2019-Jul-18 16:51 204 3 gusting 7 33.3
2019-Jul-18 15:51 011 2 gusting 6 32.2
2019-Jul-18 14:51 170 1 gusting 6 32.2
2019-Jul-18 13:51 337 2 gusting 5 30.6
2019-Jul-18 12:51 332 1 gusting 4 28.3
2019-Jul-18 11:51 23.9
2019-Jul-18 10:51 23.3
2019-Jul-18 09:51 23.3
2019-Jul-18 08:51 23.3
2019-Jul-18 07:51 23.9
2019-Jul-18 06:51 23.9
2019-Jul-18 05:51 24.4
2019-Jul-18 04:51 25.0
2019-Jul-18 03:51 25.6
2019-Jul-18 02:51 26.1
2019-Jul-18 01:51 26.7
2019-Jul-18 00:51 188 0 gusting 6 29.4
2019-Jul-17 23:51 210 3 gusting 8 31.7
2019-Jul-17 22:51 215 4 gusting 7 33.3
2019-Jul-17 21:51 218 4 gusting 7 33.3
2019-Jul-17 20:51 196 5 gusting 12 33.3
2019-Jul-17 19:51 208 4 gusting 9 33.9
2019-Jul-17 18:51 180 5 gusting 10 33.3
2019-Jul-17 17:51 217 4 gusting 10 33.3
2019-Jul-17 16:51 170 3 gusting 9 33.3
2019-Jul-17 15:51 291 2 gusting 5 33.3
2019-Jul-17 14:51 350 2 gusting 6 31.1
2019-Jul-17 13:51 301 3 gusting 6 29.4
2019-Jul-17 12:51 347 1 gusting 3 26.1
2019-Jul-17 11:51 22.8
2019-Jul-17 10:51 22.8
2019-Jul-17 09:51 23.9
2019-Jul-17 08:51 23.9
2019-Jul-17 07:51 24.4
2019-Jul-17 06:51 24.4
2019-Jul-17 05:51 25.0
2019-Jul-17 04:51 25.0
2019-Jul-17 03:51 152 1 gusting 1 25.6
2019-Jul-17 02:51 26.1
2019-Jul-17 01:51 139 0 gusting 1 26.7
2019-Jul-17 00:51 196 0 gusting 6 28.3
2019-Jul-16 23:51 204 3 gusting 9 30.0
2019-Jul-16 22:51 176 5 gusting 10 31.1
2019-Jul-16 21:51 189 4 gusting 12 31.1
2019-Jul-16 20:51 198 4 gusting 12 31.1
2019-Jul-16 19:51 201 5 gusting 12 32.2
2019-Jul-16 18:51 165 5 gusting 10 32.2